Regional Weather Roundup
Issued by NWS

Home | Current Version | Previous Version | Graphics & Text | Print | Product List | Glossary On
Versions: 1 2 3 4 5 6 7 8 9 10 11 12 13 14 15 16 17 18 19 20 21 22 23 24 25 26 27 28 29 30 31 32 33 34 35 36 37 38 39 40 41 42 43 44 45 46 47 48 49 50
719
ASUS45 KTFX 310210
RWRMT
MONTANA REGIONAL WEATHER ROUNDUP
NATIONAL WEATHER SERVICE GREAT FALLS MT
800 PM MDT TUE AUG 30 2016

NOTE: "FAIR" INDICATES FEW OR NO CLOUDS BELOW 12000 FEET WITH NO
SIGNIFICANT WEATHER AND/OR OBSTRUCTIONS TO VISIBILITY.

MTZ001>007-043-310300-
WEST OF THE DIVIDE

CITY           SKY/WX    TMP DP  RH WIND       PRES   REMARKS
KALISPELL      CLOUDY    75  53  46 N10       29.91F
MISSOULA       CLOUDY    79  42  26 SE8       29.95F
BUTTE          CLOUDY    81  28  14 E16       30.11S
MULLAN PASS    CLOUDY    71  33  24 SE3       30.11F
DEER LODGE       N/A     81  30  16 NW7       30.09R
EUREKA           N/A     81  50  34 NE3       29.90F
HAMILTON         N/A     73  43  33 NE7       29.98F
LIBBY            N/A     81  48  32 N5        29.86F
PLAINS           N/A     79  51  37 CALM      29.90F
THOMPSON FALLS   N/A     86  44  22 NE8       29.89
$$

MTZ008-052>055-310300-
SOUTHWEST MONTANA

CITY           SKY/WX    TMP DP  RH WIND       PRES   REMARKS
BOZEMAN        CLOUDY    80  36  20 E9        30.04F
DILLON         CLOUDY    83  18   9 S12       30.05F
W YELLOWSTONE  CLOUDY    73  23  15 SW3       30.24S
ENNIS          CLEAR     77  28  16 CALM      30.15S
THREE FORKS      N/A     79 -39   1 CALM      30.02S
TWIN BRIDGES     N/A     84  31  15 E3        30.04S
$$

MTZ009-010-012-014-046-048-049-054-310300-
EAST SLOPES AND CENTRAL MONTANA

CITY           SKY/WX    TMP DP  RH WIND       PRES   REMARKS
CUT BANK       CLOUDY    77  44  30 E8        30.03F
GREAT FALLS    PTCLDY    79  46  31 E10       30.02F
MALMSTROM AFB  MOCLDY    77  46  33 E3        30.02S
HELENA         CLOUDY    80  42  25 SW8       29.99F
CHOTEAU          N/A     77  45  31 E7        30.07R
CONRAD           N/A     78  50  37 NE3       30.06F
$$

MTZ011-013-016-021-045-047-050-051-310300-
NORTH CENTRAL MONTANA

CITY           SKY/WX    TMP DP  RH WIND       PRES   REMARKS
HAVRE          CLEAR     78  53  41 E12       30.00S
LEWISTOWN      CLOUDY    74  51  44 E8        30.10S
N BAR RANCH      N/A     70  46  43 CALM      30.15S
CHINOOK          N/A     79  55  44 E6        30.01S
$$

MTZ017>020-022>027-061-062-310300-
NORTHEAST MONTANA

CITY           SKY/WX    TMP DP  RH WIND       PRES   REMARKS
GLASGOW        CLEAR     80  59  48 E15       30.03S
JORDAN           N/A     81  55  40 NE9       30.03R
WOLF POINT     CLEAR     80  58  46 E13       30.05S
PLENTYWOOD       N/A     75  48  38 E8        30.12S
POPLAR           N/A     79  57  47 E12       30.07S
SCOBEY           N/A     76  51  41 E9        30.10S
$$

MTZ028>42-056>058-310300-
SOUTHCENTRAL AND SOUTHEAST MONTANA

CITY           SKY/WX    TMP DP  RH WIND       PRES   REMARKS
BAKER          CLEAR     75  58  55 SE14      30.11S
BILLINGS       PTCLDY    80  46  30 NE7       30.05S
LIVINGSTON     CLOUDY    80  37  21 E9        30.08S
MILES CITY     CLEAR     86  52  30 SE15      30.00R
EKALAKA          N/A     74  54  49 SE7       30.11R
FORSYTH          N/A     86  46  25 N5        29.99S
LAUREL           N/A     78  44  29 N3        30.04
ROUNDUP          N/A     78  46  32 N6        29.98R
$$

REGIONAL REPORTS...DAKOTAS

CITY           SKY/WX    TMP DP  RH WIND       PRES   REMARKS
WILLISTON      CLEAR     77  51  40 E7        30.13S
MINOT          CLEAR     69  49  48 E8        30.17R
DICKINSON      PTCLDY    70  53  54 E9        30.13R
CROSBY           N/A     64  45  48 SE7       30.17S HAZE
WATFORD CITY     N/A     72  50  46 E9        30.14R
BISMARCK       CLOUDY    73  51  46 SE14      30.16S
GRAND FORKS    PTCLDY    66  55  67 N5        30.19R
FARGO          PTCLDY    67  56  67 E3        30.19R
BUFFALO SD       N/A     76  58  53 SE12      30.08S
RAPID CITY     MOCLDY    72  60  66 E6        30.18R
$$

REGIONAL REPORTS...WYOMING/IDAHO/WASHINGTON

CITY           SKY/WX    TMP DP  RH WIND       PRES   REMARKS
GILLETTE       CLEAR     78  45  30 SE14      30.17R
SHERIDAN       CLEAR     79  34  19 S9        30.07R
BUFFALO WY     CLEAR     78  32  18 S12       30.18S
CODY           CLEAR     79  28  15 SE7       30.13S
YELLOWSTONE LA   N/A     63  36  36 CALM      30.36S
IDAHO FALLS    CLOUDY    81  38  21 S5        30.06S
SALMON         CLOUDY    81  37  21 CALM      29.98F
BOISE          PTCLDY    85  38  18 W8        29.85F
SPOKANE        CLOUDY    79  44  28 SW13      29.92R
$$

REGIONAL REPORTS...ALBERTA

CITY           SKY/WX    TMP DP  RH WIND       PRES   REMARKS
EDMONTON       CLEAR     68  52  56 E9        30.05S
CALGARY        MOCLDY    72  57  60 SE13      30.03F
LETHBRIDGE     MOCLDY    72  57  60 E7        29.98F
MEDICINE HAT   MOCLDY    82  50  32 SE10      29.99R
WATERTON GATE    N/A     68  59  73 NE1         N/A
CARDSTON         N/A     72  52  49 SE6         N/A
MILK RIVER       N/A     73  46  38 E8          N/A
$$

REGIONAL REPORTS...SASKATCHEWAN

CITY           SKY/WX    TMP DP  RH WIND       PRES   REMARKS
SWIFT CURRENT  CLEAR     70  55  60 E15       30.10F
REGINA         PTCLDY    72  50  46 E17       30.14S
SASKATOON      PTCLDY    63  46  55 E9        30.20S
CYPRESS HILLS    N/A     72  45  37 SE6         N/A
VAL MARIE        N/A     73  52  46 E9          N/A
ROCKGLEN         N/A     70  54  56 E7          N/A
ASSINIBOIA       N/A     68  50  52 E10         N/A
$$




USA.gov is the U.S. government's official web portal to all federal, state and local government web resources and services.